Miscellaneous Local Product
Issued by NWS Hastings, NE

Home | Current Version | Previous Version | Graphics & Text | Print | Product List | Glossary On
Versions: 1 2 3 4 5 6 7 8 9 10 11 12 13 14 15 16 17 18 19 20 21 22 23 24 25 26 27 28 29 30 31 32 33 34 35 36 37 38 39 40 41 42 43 44 45 46 47 48 49 50
000
AXUS43 KGID 300202
MISGRI

GID CWA HOURLY WEATHER ROUNDUP
NATIONAL WEATHER SERVICE HASTINGS NE
900 PM CDT MON JUN 29 2015

NOTE: "FAIR" INDICATES FEW OR NO CLOUDS BELOW 12,000 FEET WITH NO
SIGNIFICANT WEATHER AND/OR OBSTRUCTIONS TO VISIBILITY.

...SOUTH CENTRAL NEBRASKA...

CITY           SKY/WX    TMP DP  RH WIND       PRES   REMARKS
GRAND ISLAND   PTCLDY    79  64  60 SE5       29.97R HAZE
HASTINGS       CLEAR     82  62  50 CALM      29.96S
KEARNEY        CLEAR     82  63  51 E3        29.98S
ORD            PTCLDY    76  64  66 CALM      29.96R
YORK           CLEAR     77  64  65 CALM      29.95S HAZE
AURORA         CLEAR     75  65  70 E6        29.96S
LEXINGTON      CLEAR     81  64  56 E5        29.99S
HOLDREGE       CLEAR     80  62  52 E5        29.99S
HEBRON         CLEAR     80  65  60 CALM      29.94S

...NEBRASKA PANHANDLE...

CITY           SKY/WX    TMP DP  RH WIND       PRES   REMARKS
CHADRON        CLEAR     80  66  62 E5        30.04S
ALLIANCE       CLEAR     78  61  55 VRB7      30.09S
SCOTTSBLUFF    MOCLDY    80  56  43 E7        30.09R
SIDNEY         PTCLDY    74  62  66 E5        30.13S

...WESTERN AND NORTH CENTRAL NEBRASKA...

CITY           SKY/WX    TMP DP  RH WIND       PRES   REMARKS
VALENTINE      CLEAR     82  61  48 NE3       30.00S
AINSWORTH      CLEAR     82  61  50 N3        30.01S
ONEILL         PTCLDY    82  65  55 S3        29.96S
BROKEN BOW     CLEAR     79  68  69 CALM      30.00S
IMPERIAL       CLEAR     81  63  54 SE5       30.04F
NORTH PLATTE   CLEAR     79  64  60 E3        30.01R
MCCOOK         CLEAR     86  58  38 N5        30.00R

...EASTERN NEBRASKA...

CITY           SKY/WX    TMP DP  RH WIND       PRES   REMARKS
NORFOLK        CLEAR     75  66  73 E3        29.93S
SO SIOUX CITY  CLEAR     73  65  75 CALM      29.90R HAZE
TEKAMAH        CLOUDY    75  64  68 W5        29.89F
COLUMBUS       CLEAR     72  64  78 CALM      29.94F
ALBION         CLEAR     75  62  64 CALM      29.96S
OMAHA EPPLEY   CLOUDY    79  66  64 CALM      29.90S
OFFUTT AFB     CLEAR     76  65  69 S3        29.89F
MILLARD        CLEAR     79  62  56 CALM      29.90S
LINCOLN        CLEAR     80  63  55 N5        29.93S HAZE
NEBRASKA CITY  CLEAR     78  55  45 N5        29.91S
BEATRICE       CLEAR     80  65  61 CALM      29.93S
FALLS CITY     CLEAR     79  64  60 CALM      29.89F

...NORTHERN KANSAS...

CITY           SKY/WX    TMP DP  RH WIND       PRES   REMARKS
GOODLAND       CLEAR     79  54  41 S9        30.09R
HILL CITY      PTCLDY    84  55  36 SW8       29.99R
NORTON         CLEAR     81  52  36 E3        29.99R
PHILLIPSBURG   CLEAR     90  54  29 CALM      29.97R HAZE
SMITH CENTER   CLEAR     81  57  44 NE7       29.97R
HAYS           PTCLDY    84  54  34 W12       29.98R
RUSSELL        CLEAR     82  57  42 NE6       29.95R
CONCORDIA      CLEAR     78  61  55 CALM      29.94S HAZE
SALINA         CLEAR     85  57  38 NE5       29.94R
TOPEKA         CLEAR     79  67  66 CALM      29.91R



USA.gov is the U.S. government's official web portal to all federal, state and local government web resources and services.